| time (UTC) | temp C | wind direction | speed KPH | gust KPH | rain 1hr cm | rain 24hr cm | rain mn cm | humidity % | barometer mb |
| 20260901040016 | -17 | 257 | 4.8 | 8.0 | 0.00 | 0.00 | 0.00 | 1016.9 | |
| 20260901034515 | -17 | 260 | 3.2 | 9.7 | 0.00 | 0.00 | 0.00 | 1017.0 | |
| 20260901033007 | -17 | 246 | 0.0 | 0.0 | 0.00 | 0.00 | 0.00 | 1017.1 | |
| 20260901031504 | -17 | 68 | 6.4 | 16.1 | 0.00 | 0.00 | 0.00 | 1017.3 | |
| 20260901030058 | -17 | 259 | 0.0 | 9.7 | 0.00 | 0.00 | 0.00 | 1017.6 | |
| 20260901024600 | -17 | 255 | 4.8 | 11.3 | 0.00 | 0.00 | 0.00 | 1017.7 | |
| 20260901023054 | -17 | 285 | 0.0 | 6.4 | 0.00 | 0.00 | 0.00 | 1017.8 | |
| 20260901021550 | -17 | 256 | 0.0 | 8.0 | 0.00 | 0.00 | 0.00 | 1018.1 | |
| 20260901020042 | -17 | 243 | 6.4 | 17.7 | 0.00 | 0.00 | 0.00 | 1018.0 | |
| 20260901014537 | -17 | 241 | 8.0 | 14.5 | 0.00 | 0.00 | 0.00 | 1018.3 | |
| 20260901013037 | -17 | 254 | 6.4 | 12.9 | 0.00 | 0.00 | 0.00 | 1018.4 | |
| 20260901011532 | -17 | 253 | 8.0 | 11.3 | 0.00 | 0.00 | 0.00 | 1018.4 | |
| 20260901010027 | -17 | 250 | 4.8 | 9.7 | 0.00 | 0.00 | 0.00 | 1018.6 | |
| 20260901004517 | -17 | 246 | 4.8 | 8.0 | 0.00 | 0.00 | 0.00 | 1018.7 | |
| 20260901003021 | -17 | 264 | 3.2 | 8.0 | 0.00 | 0.00 | 0.00 | 1018.9 | |
| 20260901001508 | -17 | 264 | 6.4 | 14.5 | 0.00 | 0.00 | 0.00 | 1019.0 | |
| 20260901000004 | -17 | 250 | 3.2 | 8.0 | 0.00 | 0.00 | 0.00 | 1019.0 | |
| 20260831234600 | -17 | 245 | 0.0 | 0.0 | 0.00 | 0.00 | 0.00 | 1018.9 | |
| 20260831233037 | -17 | 245 | 0.0 | 4.8 | 0.00 | 0.00 | 0.00 | 1019.1 | |
| 20260831231532 | -17 | 230 | 0.0 | 9.7 | 0.00 | 0.00 | 0.00 | 1019.2 | |
| 20260831230028 | -17 | 295 | 0.0 | 11.3 | 0.00 | 0.00 | 0.00 | 1019.3 | |
| 20260831224527 | -17 | 292 | 6.4 | 11.3 | 0.00 | 0.00 | 0.00 | 1019.3 | |
| 20260831223024 | -17 | 248 | 0.0 | 8.0 | 0.00 | 0.00 | 0.00 | 1019.4 | |
| 20260831221528 | -17 | 237 | 0.0 | 8.0 | 0.00 | 0.00 | 0.00 | 1019.6 | |
| 20260831220015 | -17 | 310 | 4.8 | 6.4 | 0.00 | 0.00 | 0.00 | 1019.5 | |
| 20260831214509 | -17 | 287 | 0.0 | 6.4 | 0.00 | 0.00 | 0.00 | 1019.5 | |
| 20260831213009 | -17 | 302 | 3.2 | 9.7 | 0.00 | 0.00 | 0.00 | 1019.3 | |
| 20260831211502 | -17 | 170 | 0.0 | 8.0 | 0.00 | 0.00 | 0.00 | 1019.1 | |
| 20260831210057 | -17 | 46 | 0.0 | 6.4 | 0.00 | 0.00 | 0.00 | 1018.8 | |
| 20260831204553 | -17 | 13 | 1.6 | 8.0 | 0.00 | 0.00 | 0.00 | 1018.4 | |
| 20260831203049 | -17 | 28 | 11.3 | 20.9 | 0.00 | 0.00 | 0.00 | 1018.0 | |
| 20260831201544 | -17 | 63 | 6.4 | 17.7 | 0.00 | 0.00 | 0.00 | 1017.8 | |
| 20260831200042 | -17 | 41 | 6.4 | 19.3 | 0.00 | 0.00 | 0.00 | 1017.6 | |
| 20260831194535 | -17 | 69 | 6.4 | 19.3 | 0.00 | 0.00 | 0.00 | 1017.4 | |
| 20260831193039 | -17 | 143 | 8.0 | 19.3 | 0.00 | 0.00 | 0.00 | 1017.2 | |
| 20260831191526 | -17 | 70 | 8.0 | 27.4 | 0.00 | 0.00 | 0.00 | 1017.1 | |
| 20260831190038 | -17 | 76 | 9.7 | 27.4 | 0.00 | 0.00 | 0.00 | 1017.2 | |
| 20260831184516 | -17 | 110 | 12.9 | 27.4 | 0.00 | 0.00 | 0.00 | 1017.1 | |
| 20260831183015 | -17 | 73 | 14.5 | 27.4 | 0.00 | 0.00 | 0.00 | 1016.8 | |
| 20260831181508 | -17 | 78 | 12.9 | 32.2 | 0.00 | 0.00 | 0.00 | 1016.8 | |
| 20260831180104 | -17 | 52 | 16.1 | 30.6 | 0.00 | 0.00 | 0.00 | 1017.0 | |
| 20260831174633 | -17 | 75 | 9.7 | 29.0 | 0.00 | 0.00 | 0.00 | 1016.9 | |
| 20260831173055 | -17 | 66 | 16.1 | 33.8 | 0.00 | 0.00 | 0.00 | 1016.7 | |
| 20260831171550 | -17 | 69 | 14.5 | 37.0 | 0.00 | 0.00 | 0.00 | 1016.8 | |
| 20260831170025 | -17 | 83 | 17.7 | 29.0 | 0.00 | 0.00 | 0.00 | 1016.9 | |
| 20260831164522 | -17 | 77 | 12.9 | 25.7 | 0.00 | 0.00 | 0.00 | 1016.9 | |
| 20260831163019 | -17 | 74 | 11.3 | 29.0 | 0.00 | 0.00 | 0.00 | 1017.0 | |
| 20260831161512 | -17 | 64 | 12.9 | 32.2 | 0.00 | 0.00 | 0.00 | 1017.1 | |
| 20260831160012 | -17 | 87 | 11.3 | 24.1 | 0.00 | 0.00 | 0.00 | 1017.2 | |
| 20260831154614 | -17 | 56 | 17.7 | 32.2 | 0.00 | 0.00 | 0.00 | 1017.3 | |
| 20260831153112 | -17 | 137 | 11.3 | 30.6 | 0.00 | 0.00 | 0.00 | 1017.5 | |
| 20260831151554 | -17 | 59 | 22.5 | 33.8 | 0.00 | 0.00 | 0.00 | 1017.4 | |
| 20260831150054 | -17 | 46 | 17.7 | 25.7 | 0.00 | 0.00 | 0.00 | 1017.5 | |
| 20260831144546 | -17 | 50 | 17.7 | 33.8 | 0.00 | 0.00 | 0.00 | 1017.5 | |
| 20260831143044 | -17 | 46 | 16.1 | 29.0 | 0.00 | 0.00 | 0.00 | 1017.6 | |
| 20260831141536 | -17 | 100 | 12.9 | 33.8 | 0.00 | 0.00 | 0.00 | 1017.8 | |
| 20260831140036 | -17 | 46 | 19.3 | 33.8 | 0.00 | 0.00 | 0.00 | 1017.7 | |
| 20260831134527 | -17 | 36 | 19.3 | 33.8 | 0.00 | 0.00 | 0.00 | 1017.7 | |
| 20260831133022 | -17 | 54 | 17.7 | 33.8 | 0.00 | 0.00 | 0.00 | 1017.8 | |
| 20260831131519 | -17 | 60 | 20.9 | 38.6 | 0.00 | 0.00 | 0.00 | 1017.6 | |
| 20260831130014 | -17 | 25 | 16.1 | 33.8 | 0.00 | 0.00 | 0.00 | 1017.8 | |
| 20260831124510 | -17 | 21 | 20.9 | 33.8 | 0.00 | 0.00 | 0.00 | 1017.8 | |
| 20260831123009 | -17 | 50 | 14.5 | 30.6 | 0.00 | 0.00 | 0.00 | 1018.0 | |
| 20260831121506 | -17 | 41 | 12.9 | 30.6 | 0.00 | 0.00 | 0.00 | 1018.1 | |
| 20260831120001 | -17 | 69 | 16.1 | 30.6 | 0.00 | 0.00 | 0.00 | 1018.2 | |
| 20260831114558 | -17 | 41 | 14.5 | 22.5 | 0.00 | 0.00 | 0.00 | 1018.3 | |
| 20260831113102 | -17 | 41 | 12.9 | 25.7 | 0.00 | 0.00 | 0.00 | 1018.3 | |
| 20260831111548 | -17 | 46 | 11.3 | 24.1 | 0.00 | 0.00 | 0.00 | 1018.4 | |
| 20260831110044 | -17 | 46 | 16.1 | 25.7 | 0.00 | 0.00 | 0.00 | 1018.5 | |
| 20260831104550 | -17 | 51 | 1.6 | 20.9 | 0.00 | 0.00 | 0.00 | 1018.5 | |
| 20260831103038 | -17 | 7 | 8.0 | 25.7 | 0.00 | 0.00 | 0.00 | 1018.4 | |
| 20260831101544 | -17 | 36 | 12.9 | 25.7 | 0.00 | 0.00 | 0.00 | 1018.3 | |
| 20260831100037 | -17 | 36 | 9.7 | 22.5 | 0.00 | 0.00 | 0.00 | 1018.4 | |
| 20260831094540 | -17 | 4 | 6.4 | 20.9 | 0.00 | 0.00 | 0.00 | 1018.5 | |
| 20260831093031 | -17 | 221 | 0.0 | 4.8 | 0.00 | 0.00 | 0.00 | 1018.4 | |
| 20260831091540 | -17 | 250 | 3.2 | 6.4 | 0.00 | 0.00 | 0.00 | 1018.3 | |
| 20260831090027 | -17 | 300 | 0.0 | 0.0 | 0.00 | 0.00 | 0.00 | 1018.2 | |
| 20260831084606 | -17 | 300 | 0.0 | 4.8 | 0.00 | 0.00 | 0.00 | 1018.1 | |
| 20260831083023 | -17 | 300 | 1.6 | 9.7 | 0.00 | 0.00 | 0.00 | 1017.9 | |
| 20260831081519 | -17 | 279 | 0.0 | 0.0 | 0.00 | 0.00 | 0.00 | 1018.1 | |
| 20260831080033 | -17 | 243 | 0.0 | 6.4 | 0.00 | 0.00 | 0.00 | 1018.0 | |
| 20260831074521 | -17 | 263 | 3.2 | 9.7 | 0.00 | 0.00 | 0.00 | 1017.8 | |
| 20260831073005 | -17 | 236 | 0.0 | 0.0 | 0.00 | 0.00 | 0.00 | 1017.6 | |
| 20260831071502 | -17 | 236 | 3.2 | 8.0 | 0.00 | 0.00 | 0.00 | 1017.4 | |
| 20260831070057 | -17 | 236 | 0.0 | 6.4 | 0.00 | 0.00 | 0.00 | 1017.3 | |
| 20260831064556 | -17 | 236 | 0.0 | 4.8 | 0.00 | 0.00 | 0.00 | 1017.3 | |
| 20260831063103 | -17 | 236 | 3.2 | 6.4 | 0.00 | 0.00 | 0.00 | 1017.3 | |
| 20260831061544 | -17 | 236 | 0.0 | 6.4 | 0.00 | 0.00 | 0.00 | 1017.3 | |
| 20260831060040 | -17 | 236 | 0.0 | 6.4 | 0.00 | 0.00 | 0.00 | 1017.2 | |
| 20260831054534 | -17 | 236 | 0.0 | 6.4 | 0.00 | 0.00 | 0.00 | 1017.2 | |
| 20260831053030 | -17 | 236 | 3.2 | 8.0 | 0.00 | 0.00 | 0.00 | 1017.3 | |
| 20260831051559 | -17 | 236 | 1.6 | 4.8 | 0.00 | 0.00 | 0.00 | 1017.4 | |
| 20260831050054 | -17 | 236 | 4.8 | 9.7 | 0.00 | 0.00 | 0.00 | 1017.4 | |
| 20260831044548 | -17 | 263 | 0.0 | 8.0 | 0.00 | 0.00 | 0.00 | 1017.4 | |
| 20260831043049 | -17 | 220 | 3.2 | 6.4 | 0.00 | 0.00 | 0.00 | 1017.4 | |
| 20260831041548 | -17 | 41 | 6.4 | 17.7 | 0.00 | 0.00 | 0.00 | 1017.5 |